Regional Weather Roundup
Issued by NWS

Home | Current Version | Previous Version | Text Only | Print | Product List | Glossary On
Versions: 1 2 3 4 5 6 7 8 9 10 11 12 13 14 15 16 17 18 19 20 21 22 23 24 25 26 27 28 29 30 31 32 33 34 35 36 37 38 39 40 41 42 43 44 45 46 47 48 49 50
413
ASUS43 KTOP 210008
RWRKS

WEATHER ROUNDUP FOR KANSAS
NATIONAL WEATHER SERVICE GOODLAND KS
700 PM CDT FRI OCT 20 2017

NOTE:  "FAIR" INDICATES FEW OR NO CLOUDS BELOW 12,000 FEET WITH NO
SIGNIFICANT WEATHER AND/OR OBSTRUCTIONS TO VISIBILITY.

KSZ001>006-013>018-027>032-041>047-210100-
NORTHWEST KANSAS

CITY           SKY/WX    TMP DP  RH WIND       PRES   REMARKS
GOODLAND       CLEAR     70  46  42 S13       29.54S
6HR MIN TEMP:  70; 6HR MAX TEMP:  80;

HAYS           CLEAR     73  57  57 S25G32    29.62S
HILL CITY      CLOUDY    73  56  54 S22G32    29.59R
6HR MIN TEMP:  73; 6HR MAX TEMP:  80;

RUSSELL        PTCLDY    73  59  61 S23G35    29.64F
6HR MIN TEMP:  70; 6HR MAX TEMP:  78; 6HR PCP: TRACE;

$$

KSZ061>065-074>080-084>089-210100-
SOUTHWEST KANSAS

CITY           SKY/WX    TMP DP  RH WIND       PRES   REMARKS
DODGE CITY     CLEAR     71  57  61 S28G38    29.66R
6HR MIN TEMP:  70; 6HR MAX TEMP:  79;

ELKHART          N/A     76  46  34 S14         N/A
GARDEN CITY    PTCLDY    73  54  51 S22G37    29.59S
6HR MIN TEMP:  73; 6HR MAX TEMP:  80; 6HR PCP: TRACE;

GREAT BEND     CLEAR     72  58  61 S28G39    29.67S
LIBERAL        MOCLDY    78  52  40 S29G37    29.64S
PRATT          PTCLDY    71  56  60 S28G36    29.73S
6HR MIN TEMP:  71; 6HR MAX TEMP:  77;

$$

KSZ066>073-081>083-090>101-210100-
SOUTHEAST KANSAS

CITY           SKY/WX    TMP DP  RH WIND       PRES   REMARKS
CHANUTE        CLEAR     70  58  65 SE13      29.88F
6HR MIN TEMP:  69; 6HR MAX TEMP:  76;

COFFEYVILLE    CLEAR     72  59  63 SE12      29.88S
6HR MIN TEMP:  72; 6HR MAX TEMP:  77; 6HR PCP: TRACE;

HUTCHINSON     MOCLDY    73  59  61 S24G37    29.74R
6HR MIN TEMP:  73; 6HR MAX TEMP:  78;

MEDICINE LODGE   N/A     72  58  61 S18G37    29.73S
NEWTON         PTCLDY    72  56  57 S22G37    29.77F
PARSONS        CLEAR     72  57  59 S8G20     29.89F
6HR MIN TEMP:  72; 6HR MAX TEMP:  76; 6HR PCP: TRACE;

WICHITA INTL   PTCLDY    73  57  57 S20       29.76F
6HR MIN TEMP:  73; 6HR MAX TEMP:  78;

WICHITA JABRA  CLEAR     73  56  54 S20G30    29.77F
6HR MIN TEMP:  73; 6HR MAX TEMP:  77;

WICHITA MCCONL PTCLDY    73  54  50 S18G26    29.78S
WINFIELD       CLOUDY    74  59  59 S21G31    29.82F
6HR MIN TEMP:  74; 6HR MAX TEMP:  77;

$$

KSZ007>012-019>026-033>040-048>060-102>105-210100-
NORTHEAST KANSAS

CITY           SKY/WX    TMP DP  RH WIND       PRES   REMARKS
CONCORDIA      CLOUDY    72  58  61 S23G31    29.69S
6HR MIN TEMP:  72; 6HR MAX TEMP:  78;

EMPORIA        CLEAR     68  57  68 SE18G25   29.82R
6HR MIN TEMP:  68; 6HR MAX TEMP:  76;

LAWRENCE       CLEAR     70  58  65 SE17      29.84S
6HR MIN TEMP:  69; 6HR MAX TEMP:  77;

MANHATTAN      PTCLDY    72  59  63 S15G26    29.74F
6HR MIN TEMP:  72; 6HR MAX TEMP:  80;

MARYSVILLE     CLOUDY    72  59  64 SE14G20   29.74S
OLATHE IND     CLEAR     68  57  68 S14       29.87F
6HR MIN TEMP:  68; 6HR MAX TEMP:  74;

OLATHE EXE     CLEAR     67  57  70 S10       29.87F
6HR MIN TEMP:  67; 6HR MAX TEMP:  73;

SALINA         CLEAR     74  59  59 S23G32    29.71S
6HR MIN TEMP:  74; 6HR MAX TEMP:  80;

TOPEKA BILLARD CLEAR     71  58  63 SE14G23   29.81S
6HR MIN TEMP:  71; 6HR MAX TEMP:  79;

TOPEKA FORBES  CLEAR     71  57  61 S14G23    29.82S
6HR MIN TEMP:  71; 6HR MAX TEMP:  79;

$$




USA.gov is the U.S. government's official web portal to all federal, state and local government web resources and services.